Location: *
(40.7190°N, 4.2480°W)
Time: 04:52:52
(UTC+00:00)

STARLINK-1071 - Pass Details

Date: 18 February 2020
Orbit: 532 x 534 km, 53.0° (Epoch: 29 March)

Event Time Altitude Azimuth Distance (km) Brightness Sun altitude
Exits shadow 05:47:39 29° 295° (WNW) 1,015 4.4 -15.8°
Maximum altitude 05:48:51 35° 331° (NNW) 884 4.4 -15.6°
Drops below altitude 10° 05:52:37 10° 38° (NE) 1,802 6.7 -14.9°
Sets 05:55:00 0° 48° (NE) 2,697 7.9 -14.4°
